sat.trackr.live / text

‹ back to catalog

STARLINK-5516

NORAD 57253 · 2023-094AM

PAYLOAD ACTIVE UNKNOWN

§ Identity

Operator
Country
US
Launch date
2023-07-07
Launch site
AFWTR
Launch vehicle
Mass (kg)
RCS (m²)

Purposes: comms

External: N2YO · Heavens-Above · Gunter

§ Orbital elements

Epoch: 2026-05-25T03:23:28.542048Z

Period
94.27 min
Inclination
43.0015°
Eccentricity
0.0001325
Mean motion
15.27579840 rev/d
Perigee alt
482.1 km
Apogee alt
484.0 km
Semi-major
6,861.2 km
B*
1.3824e-5
RAAN
308.0069°
Arg perigee
273.9660°
Mean anomaly
86.1040°
Rev number
15,893

§ Raw data

STARLINK-55161 57253U 23094AM  26145.14130257  .00000118  00000+0  13824-4 0  99922 57253  43.0015 308.0069 0001325 273.9660  86.1040 15.27579840158930

JSON: /api/v1/satellites/57253 · /tle

For live sub-satellite position, see the globe view (requires WebGL).

§ Visibility from observer

Set your observer location to see the next 7 days of passes ≥ 10°. The values pass through the URL so the page stays shareable.

No JS? Fill the form by hand. The geolocation button needs JavaScript.